Volver al catálogo

STARLINK-37304

ActivoComunicacionesSSO
NORAD 68683·PAYLOAD·🇺🇸 United States

Lanzado Apr 11, 2026 desde Vandenberg Space Force Base

Loading…

Próximos Pases (próximas 24 horas)

TLE

ActualizadoSource: CelesTrak SupGP

Época: Sep 15, 2026, 04:07 UTC

1 68683C 26077X   26258.17201389  .00000266  00000+0  82418-5 0  2586
2 68683  97.2850 128.2117 0001693  96.9919 168.4795 15.33448617    11

Sigue STARLINK-37304 en tiempo real con AllMySat

Download on the App Store